Regional Weather Roundup
Issued by NWS

Home | Current Version | Previous Version | Graphics & Text | Print | Product List | Glossary Off
Versions: 1 2 3 4 5 6 7 8 9 10 11 12 13 14 15 16 17 18 19 20 21 22 23 24 25 26 27 28 29 30 31 32 33 34 35 36 37 38 39 40 41 42 43 44 45 46 47 48 49 50

000
ASUS43 KTOP 252008
RWRKS

WEATHER ROUNDUP FOR KANSAS
NATIONAL WEATHER SERVICE GOODLAND KS
300 PM CDT SUN JUN 25 2017

NOTE:  "FAIR" INDICATES FEW OR NO CLOUDS BELOW 12,000 FEET WITH NO
SIGNIFICANT WEATHER AND/OR OBSTRUCTIONS TO VISIBILITY.

KSZ001>006-013>018-027>032-041>047-252100-
NORTHWEST KANSAS

CITY           SKY/WX    TMP DP  RH WIND       PRES   REMARKS
GOODLAND       CLOUDY    61  57  87 E18       30.33S
HAYS           LGT RAIN  59  56  89 E10       30.33F
HILL CITY      CLOUDY    63  56  78 E10       30.34F
RUSSELL        LGT RAIN  60  56  86 E12       30.31F
$$

KSZ061>065-074>080-084>089-252100-
SOUTHWEST KANSAS

CITY           SKY/WX    TMP DP  RH WIND       PRES   REMARKS
DODGE CITY     HVY RAIN  61  59  93 NE22G28   30.36R FOG
ELKHART          N/A     73  56  55 SE14        N/A
GARDEN CITY    CLOUDY    61  58  90 E22       30.29F
GREAT BEND     LGT RAIN  65  62  90 N13       30.33F
LIBERAL        CLOUDY    70  64  81 SE12      30.26F
PRATT          RAIN      75  47  37 SW5       30.30R
$$

KSZ066>073-081>083-090>101-252100-
SOUTHEAST KANSAS

CITY           SKY/WX    TMP DP  RH WIND       PRES   REMARKS
CHANUTE        CLOUDY    84  55  36 NW9       30.25F
COFFEYVILLE    SUNNY     85  52  32 SW3       30.23F
HUTCHINSON     LGT RAIN  73  59  61 N8        30.29R
MEDICINE LODGE   N/A     82  45  27 S7        30.24S
NEWTON         CLOUDY    74  58  57 NE8       30.29F
PARSONS        CLOUDY    86  54  33 CALM      30.25F
WICHITA INTL   CLOUDY    79  59  50 W5        30.24F
WICHITA JABRA  CLOUDY    79  58  48 CALM      30.26F
WICHITA MCCONL PTSUNNY   81  58  45 SE3       30.25F
WINFIELD       MOSUNNY   84  57  39 VRB5      30.25F
$$

KSZ007>012-019>026-033>040-048>060-102>105-252100-
NORTHEAST KANSAS

CITY           SKY/WX    TMP DP  RH WIND       PRES   REMARKS
CONCORDIA      LGT RAIN  59  53  80 NE7       30.34F
EMPORIA        CLOUDY    74  56  53 N10       30.29S
LAWRENCE       CLOUDY    75  52  44 NW10      30.28S
MANHATTAN      LGT RAIN  63  58  83 CALM      30.32R
MARYSVILLE     CLOUDY    68  50  52 SW7       30.31F
OLATHE IND     CLOUDY    73  49  42 N9        30.28F
OLATHE EXE     CLOUDY    74  47  38 NW12      30.27F
SALINA         LGT RAIN  69  55  60 N12       30.34R
TOPEKA BILLARD CLOUDY    73  53  49 NW6       30.30R
TOPEKA FORBES  LGT RAIN  73  54  51 N3        30.30S
$$



USA.gov is the U.S. government's official web portal to all federal, state and local government web resources and services.